Regional Weather Roundup
Issued by NWS Cleveland, OH

Home | Current Version | Previous Version | Graphics & Text | Print | Product List | Glossary On
Versions: 1 2 3 4 5 6 7 8 9 10 11 12 13 14 15 16 17 18 19 20 21 22 23 24 25 26 27 28 29 30 31 32 33 34 35 36 37 38 39 40 41 42 43 44 45 46 47 48 49 50
000
ASUS41 KCLE 042100
RWRCLE
OHIO REGIONAL WEATHER ROUNDUP
NATIONAL WEATHER SERVICE WILMINGTON, OH
400 PM EST WED MAR 04 2015

NOTE: "FAIR" INDICATES FEW OR NO CLOUDS BELOW 12,000 FEET WITH NO
SIGNIFICANT WEATHER AND/OR OBSTRUCTIONS TO VISIBILITY.

OHZ001>008-015>018-024>027-034-035-043-044-042200-
   NORTHWEST OHIO

CITY           SKY/WX    TMP DP  RH WIND       PRES   REMARKS
DEFIANCE       CLOUDY    30  18  60 NW12G22   30.03R WCI  20
FINDLAY        CLOUDY    33  23  66 W15       29.98R WCI  23
TOLEDO EXPRESS CLOUDY    30  18  60 NW17      30.00R WCI  18
TOLEDO EXEC    CLOUDY    32  19  58 W18       29.99R WCI  20
LIMA           CLOUDY    33  24  69 W14       29.99R WCI  23
$$

OHZ009>014-019>023-028>033-038-089-042200-
   NORTHEAST OHIO

CITY           SKY/WX    TMP DP  RH WIND       PRES   REMARKS
CLE-HOPKINS    CLOUDY    34  24  67 W15       29.99R WCI  24
CLE-LAKEFRONT  CLOUDY    33  26  75 W10       29.97R WCI  25
CUY CO. ARPT   CLOUDY    34  27  75 NW16      29.96R WCI  23
LORAIN-ELYRIA  CLOUDY    33  23  66 W15       29.97R WCI  23
ASHTABULA      CLOUDY    32  22  66 W6        29.94R WCI  26
AKRON-CANTON   CLOUDY    34  26  72 W8        29.93S WCI  27
WOOSTER        CLOUDY    32  25  75 W13       29.95R WCI  22
MANSFIELD      CLOUDY    32  24  72 W9        29.95R WCI  24
YOUNGSTOWN     CLOUDY    33  25  72 W10       29.91S WCI  25
$$

OHZ042-051>053-060>062-070>072-077>081-042200-
  SOUTHWEST OHIO

CITY           SKY/WX    TMP DP  RH WIND       PRES   REMARKS
CINC-COVINGTON LGT SNOW  33  31  92 N14       29.97F VSB 3/4 WCI  23
CINC-LUNKEN    LGT SNOW  33  32  96 NW6       30.01F FOG     WCI  28
HAMILTON       LGT SNOW  34  31  88 NW12      30.01F VSB 1   WCI  25
DAYTON         NOT AVBL
WRIGHT-PAT AFB NOT AVBL
DAYTON GENERAL LGT SNOW  33  29  85 NW10      29.98S VSB 3/4 WCI  25
WILMINGTON     LGT SNOW  33  28  81 N7        29.96F WCI  27
$$

OHZ036-037-039>041-045>050-054>059-063>069-073>076-082>088-042200-
  CENTRAL AND SOUTHEAST OHIO

CITY           SKY/WX    TMP DP  RH WIND       PRES   REMARKS
COLUMBUS       CLOUDY    34  29  82 NW8       29.98R WCI  27
OSU AIRPORT    CLOUDY    34  28  79 NW10      29.97R HAZE    WCI  26
BOLTON FIELD   CLOUDY    34  28  80 NW8       29.99R WCI  27
RICKENBACK AFB NOT AVBL
NEWARK         CLOUDY    35  29  78 NW9       29.96R WCI  28
MARION         CLOUDY    33  24  69 NW9       29.98R HAZE    WCI  25
LANCASTER      CLOUDY    36  31  82 NW6       29.98S HAZE
ZANESVILLE     CLOUDY    35  28  75 W7        29.96R WCI  29
NEW PHILLY     CLOUDY    37  28  70 NW9       29.96R HAZE
$$



USA.gov is the U.S. government's official web portal to all federal, state and local government web resources and services.